| time (UTC) | temp F | wind direction | speed knots | gust knots | rain 1hr in | rain 24hr in | rain mn in | humidity % | barometer mb |
| 20260508021505 | 69 | 39 | 0.9 | 3.5 | 0.00 | 0.00 | 0.00 | 46 | 1015.0 |
| 20260508020001 | 71 | 44 | 1.7 | 5.2 | 0.00 | 0.00 | 0.00 | 43 | 1014.9 |
| 20260508014546 | 73 | 66 | 0.9 | 4.3 | 0.00 | 0.00 | 0.00 | 41 | 1015.1 |
| 20260508013045 | 73 | 61 | 0.0 | 4.3 | 0.00 | 0.02 | 0.00 | 41 | 1015.2 |
| 20260508011549 | 73 | 28 | 0.9 | 5.2 | 0.00 | 0.02 | 0.00 | 44 | 1015.3 |
| 20260508010057 | 74 | 179 | 0.0 | 0.0 | 0.00 | 0.02 | 0.00 | 43 | 1015.4 |
| 20260508004542 | 75 | 180 | 0.0 | 0.0 | 0.00 | 0.02 | 0.00 | 42 | 1015.5 |
| 20260508003040 | 74 | 180 | 0.0 | 4.3 | 0.00 | 0.04 | 0.00 | 44 | 1015.6 |
| 20260508001537 | 74 | 169 | 0.9 | 3.5 | 0.00 | 0.04 | 0.00 | 45 | 1015.7 |
| 20260508000044 | 73 | 251 | 0.0 | 4.3 | 0.00 | 0.04 | 0.00 | 44 | 1015.8 |
| 20260507234534 | 73 | 304 | 0.0 | 3.5 | 0.00 | 0.04 | 0.00 | 45 | 1016.0 |
| 20260507233038 | 72 | 256 | 0.0 | 1.7 | 0.00 | 0.04 | 0.00 | 45 | 1016.1 |
| 20260507231511 | 74 | 300 | 0.9 | 7.0 | 0.00 | 0.04 | 0.00 | 41 | 1016.3 |
| 20260507230019 | 74 | 332 | 1.7 | 6.1 | 0.00 | 0.04 | 0.00 | 43 | 1016.6 |
| 20260507224549 | 73 | 326 | 0.0 | 7.0 | 0.00 | 0.04 | 0.00 | 43 | 1016.8 |
| 20260507223132 | 71 | 327 | 0.9 | 4.3 | 0.00 | 0.04 | 0.04 | 44 | 1017.0 |
| 20260507221530 | 72 | 321 | 0.9 | 8.7 | 0.00 | 0.04 | 0.04 | 43 | 1017.2 |
| 20260507220023 | 70 | 323 | 0.9 | 5.2 | 0.00 | 0.04 | 0.04 | 47 | 1017.5 |
| 20260507214504 | 70 | 285 | 0.9 | 7.0 | 0.00 | 0.04 | 0.04 | 47 | 1017.6 |
| 20260507213004 | 70 | 259 | 0.9 | 7.0 | 0.00 | 0.04 | 0.04 | 49 | 1017.7 |
| 20260507211548 | 69 | 351 | 0.9 | 6.1 | 0.00 | 0.04 | 0.04 | 51 | 1017.8 |
| 20260507210047 | 68 | 279 | 0.0 | 4.3 | 0.00 | 0.04 | 0.04 | 50 | 1018.1 |
| 20260507204527 | 67 | 274 | 1.7 | 6.1 | 0.00 | 0.04 | 0.04 | 53 | 1018.3 |
| 20260507203032 | 65 | 139 | 0.9 | 4.3 | 0.00 | 0.04 | 0.04 | 55 | 1018.4 |
| 20260507201502 | 64 | 25 | 0.9 | 7.0 | 0.00 | 0.04 | 0.04 | 56 | 1018.6 |
| 20260507200110 | 64 | 313 | 1.7 | 7.0 | 0.00 | 0.04 | 0.04 | 57 | 1018.8 |
| 20260507200000 | 64 | 286 | 0.9 | 7.0 | 0.00 | 0.04 | 0.04 | 57 | 1018.8 |
| 20260507194542 | 63 | 209 | 0.9 | 3.5 | 0.00 | 0.04 | 0.04 | 57 | 1019.0 |
| 20260507193046 | 62 | 213 | 0.0 | 6.1 | 0.00 | 0.04 | 0.04 | 60 | 1019.1 |
| 20260507191525 | 62 | 217 | 1.7 | 5.2 | 0.00 | 0.04 | 0.04 | 60 | 1019.2 |
| 20260507190032 | 62 | 58 | 0.0 | 5.2 | 0.00 | 0.04 | 0.04 | 61 | 1019.3 |
| 20260507184509 | 61 | 309 | 0.0 | 4.3 | 0.00 | 0.04 | 0.04 | 61 | 1019.5 |
| 20260507183006 | 61 | 19 | 0.0 | 5.2 | 0.00 | 0.04 | 0.04 | 61 | 1019.6 |
| 20260507181545 | 60 | 51 | 0.0 | 3.5 | 0.00 | 0.04 | 0.04 | 62 | 1019.8 |
| 20260507180047 | 60 | 34 | 0.0 | 1.7 | 0.00 | 0.04 | 0.04 | 64 | 1019.9 |
| 20260507174526 | 59 | 35 | 0.0 | 3.5 | 0.00 | 0.04 | 0.04 | 67 | 1020.1 |
| 20260507173025 | 58 | 327 | 0.0 | 3.5 | 0.00 | 0.04 | 0.04 | 68 | 1020.2 |
| 20260507171507 | 57 | 5 | 0.0 | 4.3 | 0.00 | 0.04 | 0.04 | 69 | 1020.2 |
| 20260507170007 | 57 | 42 | 0.9 | 5.2 | 0.00 | 0.04 | 0.04 | 70 | 1020.3 |
| 20260507164550 | 56 | 43 | 0.9 | 5.2 | 0.00 | 0.04 | 0.04 | 71 | 1020.2 |
| 20260507163049 | 55 | 42 | 0.9 | 4.3 | 0.00 | 0.04 | 0.04 | 72 | 1020.3 |
| 20260507161532 | 54 | 45 | 0.9 | 5.2 | 0.00 | 0.04 | 0.04 | 73 | 1020.2 |
| 20260507160032 | 54 | 47 | 1.7 | 7.0 | 0.00 | 0.04 | 0.04 | 73 | 1020.3 |
| 20260507154513 | 53 | 57 | 0.0 | 2.6 | 0.00 | 0.04 | 0.04 | 75 | 1020.3 |
| 20260507153013 | 53 | 57 | 0.0 | 5.2 | 0.00 | 0.04 | 0.04 | 76 | 1020.3 |
| 20260507151559 | 53 | 52 | 0.0 | 4.3 | 0.00 | 0.04 | 0.04 | 77 | 1020.3 |
| 20260507150056 | 53 | 51 | 0.9 | 3.5 | 0.00 | 0.04 | 0.04 | 77 | 1020.3 |
| 20260507144536 | 52 | 50 | 0.0 | 2.6 | 0.00 | 0.04 | 0.04 | 79 | 1020.2 |
| 20260507143036 | 52 | 50 | 0.9 | 3.5 | 0.00 | 0.04 | 0.04 | 80 | 1020.1 |
| 20260507141523 | 52 | 50 | 0.0 | 0.0 | 0.00 | 0.04 | 0.04 | 82 | 1020.1 |
| 20260507140022 | 52 | 50 | 0.0 | 3.5 | 0.00 | 0.04 | 0.04 | 82 | 1020.0 |
| 20260507134522 | 52 | 50 | 0.0 | 0.0 | 0.00 | 0.04 | 0.04 | 81 | 1019.9 |
| 20260507133022 | 52 | 50 | 0.0 | 1.7 | 0.00 | 0.04 | 0.04 | 81 | 1019.8 |
| 20260507131526 | 52 | 50 | 0.0 | 0.0 | 0.00 | 0.04 | 0.04 | 82 | 1019.6 |
| 20260507130020 | 52 | 50 | 0.0 | 0.0 | 0.00 | 0.04 | 0.04 | 82 | 1019.7 |
| 20260507124519 | 52 | 50 | 0.0 | 0.0 | 0.00 | 0.04 | 0.04 | 82 | 1019.7 |
| 20260507123018 | 52 | 50 | 0.0 | 0.0 | 0.00 | 0.04 | 0.04 | 83 | 1019.7 |
| 20260507121604 | 52 | 50 | 0.0 | 0.0 | 0.00 | 0.04 | 0.04 | 83 | 1019.8 |
| 20260507114542 | 52 | 50 | 0.0 | 0.0 | 0.00 | 0.04 | 0.04 | 85 | 1020.0 |
| 20260507113041 | 52 | 50 | 0.0 | 0.0 | 0.00 | 0.04 | 0.04 | 83 | 1020.0 |
| 20260507111523 | 52 | 50 | 0.0 | 0.0 | 0.00 | 0.04 | 0.04 | 82 | 1020.0 |
| 20260507110026 | 53 | 50 | 0.0 | 0.0 | 0.00 | 0.04 | 0.04 | 81 | 1020.1 |
| 20260507104504 | 53 | 50 | 0.0 | 0.0 | 0.00 | 0.04 | 0.04 | 81 | 1020.1 |
| 20260507103002 | 53 | 50 | 0.0 | 0.0 | 0.00 | 0.04 | 0.04 | 80 | 1020.3 |
| 20260507101603 | 53 | 50 | 0.0 | 0.0 | 0.00 | 0.04 | 0.04 | 80 | 1020.4 |
| 20260507100054 | 53 | 50 | 0.0 | 0.0 | 0.00 | 0.04 | 0.04 | 79 | 1020.4 |
| 20260507094543 | 53 | 50 | 0.0 | 0.0 | 0.00 | 0.04 | 0.04 | 79 | 1020.5 |
| 20260507093025 | 53 | 50 | 0.0 | 0.0 | 0.00 | 0.04 | 0.04 | 80 | 1020.6 |
| 20260507091524 | 54 | 50 | 0.0 | 1.7 | 0.00 | 0.04 | 0.04 | 80 | 1020.8 |
| 20260507090006 | 54 | 50 | 0.0 | 0.0 | 0.00 | 0.04 | 0.04 | 80 | 1020.9 |
| 20260507084505 | 54 | 50 | 0.0 | 0.0 | 0.00 | 0.04 | 0.04 | 80 | 1020.8 |
| 20260507083104 | 54 | 50 | 0.0 | 0.0 | 0.00 | 0.04 | 0.04 | 80 | 1020.8 |
| 20260507081556 | 54 | 50 | 0.0 | 0.0 | 0.00 | 0.04 | 0.04 | 81 | 1020.8 |
| 20260507080028 | 54 | 50 | 0.0 | 0.0 | 0.00 | 0.04 | 0.04 | 81 | 1020.8 |
| 20260507074527 | 54 | 50 | 0.0 | 0.0 | 0.00 | 0.04 | 0.04 | 82 | 1020.8 |
| 20260507073009 | 54 | 50 | 0.0 | 1.7 | 0.00 | 0.04 | 0.04 | 83 | 1020.8 |
| 20260507071511 | 54 | 50 | 0.0 | 2.6 | 0.00 | 0.04 | 0.04 | 82 | 1020.7 |
| 20260507070051 | 54 | 50 | 0.0 | 2.6 | 0.00 | 0.04 | 0.04 | 82 | 1020.7 |
| 20260507064550 | 54 | 51 | 0.0 | 0.0 | 0.00 | 0.04 | 0.04 | 83 | 1020.7 |
| 20260507063034 | 54 | 50 | 0.0 | 0.0 | 0.00 | 0.04 | 0.04 | 83 | 1020.7 |
| 20260507061532 | 54 | 53 | 0.0 | 3.5 | 0.00 | 0.04 | 0.04 | 83 | 1020.6 |
| 20260507060019 | 54 | 53 | 0.0 | 3.5 | 0.00 | 0.04 | 0.04 | 83 | 1020.8 |
| 20260507054512 | 55 | 56 | 0.0 | 6.1 | 0.00 | 0.04 | 0.04 | 83 | 1020.6 |
| 20260507053051 | 55 | 53 | 0.0 | 6.1 | 0.00 | 0.04 | 0.04 | 82 | 1020.5 |
| 20260507051549 | 56 | 40 | 0.0 | 6.1 | 0.00 | 0.04 | 0.04 | 82 | 1020.6 |
| 20260507050035 | 56 | 27 | 0.0 | 0.0 | 0.00 | 0.04 | 0.04 | 81 | 1020.6 |
| 20260507044536 | 57 | 45 | 0.0 | 3.5 | 0.00 | 0.04 | 0.04 | 81 | 1020.5 |
| 20260507043010 | 57 | 28 | 0.0 | 6.1 | 0.00 | 0.04 | 0.04 | 81 | 1020.5 |
| 20260507041522 | 57 | 81 | 0.0 | 7.0 | 0.00 | 0.04 | 0.04 | 81 | 1020.4 |
| 20260507040048 | 57 | 32 | 1.7 | 8.7 | 0.00 | 0.04 | 0.04 | 81 | 1020.2 |
| 20260507034548 | 58 | 69 | 1.7 | 7.8 | 0.00 | 0.04 | 0.04 | 80 | 1020.0 |
| 20260507033029 | 58 | 63 | 0.0 | 7.0 | 0.00 | 0.04 | 0.04 | 80 | 1019.8 |
| 20260507031527 | 59 | 68 | 1.7 | 5.2 | 0.00 | 0.04 | 0.04 | 79 | 1019.6 |
| 20260507030003 | 59 | 72 | 0.0 | 7.0 | 0.00 | 0.04 | 0.04 | 78 | 1019.5 |
| 20260507024630 | 60 | 82 | 0.9 | 6.1 | 0.00 | 0.04 | 0.04 | 77 | 1019.3 |
| 20260507023042 | 61 | 61 | 0.0 | 6.1 | 0.01 | 0.04 | 0.04 | 77 | 1019.1 |